Provo, UT

5:53 PM MDT on July 27, 2017 (GMT -0600)
Provo Municipal

Weather History for KPVU - June, 2013

Change the Weather History Date:

Saturday, June 8, 2013

  Actual Average Record
Temperature  
Mean Temperature 70 °F -  
Max Temperature 84 °F 74 °F 93 °F (2001)
Min Temperature 55 °F 48 °F 37 °F (2005)
Cooling Degree Days 4    
Growing Degree Days 20 (Base 50)    
Moisture  
Dew Point 45 °F    
Average Humidity 48    
Maximum Humidity 67    
Minimum Humidity 18    
Precipitation  
Precipitation 0.00 in - - ()
Sea Level Pressure  
Sea Level Pressure 29.99 in    
Wind  
Wind Speed 3 mph (NW)    
Max Wind Speed 18 mph    
Max Gust Speed -    
Visibility 12 miles    
Events      
Averages and records for this station are not official NWS values.
T = Trace of Precipitation, MM = Missing Value Source: NWS Daily Summary

Daily Weather History Graph

Daily Weather History Graph

Search for Another Location

Airport or City:

Trip Planner

Search our weather history database for the weather conditions in past years. The results will help you decide how hot, cold, wet, or windy it might be!

Date:

Astronomy

Jun. 08, 2013 Rise Set
Actual Time 5:57 AM MDT 8:55 PM MDT
Civil Twilight 5:24 AM MDT 9:27 PM MDT
Nautical Twilight 4:43 AM MDT 10:09 PM MDT
Astronomical Twilight 3:54 AM MDT 10:57 PM MDT
Moon 6:07 AM MDT (6/8) 9:00 PM MDT (6/8)
Length of Visible Light 16h 03m
Length of Day
14h 57m
New Moon, 0% of the Moon is Illuminated
Jun 8
New Moon
Jun 16
First Quarter
Jun 23
Full
Jun 29
Last Quarter
Jul 8
New

Hourly Weather History & Observations

Time (MDT) Temp. Dew Point Humidity Pressure Visibility Wind Dir Wind Speed Gust Speed Precip Events Conditions
12:15 AM 64.4 °F 50.0 °F 59% 29.92 in 10.0 mi Calm Calm - N/A   Clear
12:35 AM 64.4 °F 48.2 °F 56% 29.93 in 10.0 mi Calm Calm - N/A   Clear
12:55 AM 64.4 °F 50.0 °F 59% 29.93 in 10.0 mi Calm Calm - N/A   Clear
1:15 AM 60.8 °F 48.2 °F 63% 29.93 in 10.0 mi Calm Calm - N/A   Clear
1:35 AM 62.6 °F 48.2 °F 59% 29.93 in 10.0 mi Calm Calm - N/A   Clear
1:55 AM 62.6 °F 48.2 °F 59% 29.94 in 10.0 mi Calm Calm - N/A   Clear
2:15 AM 62.6 °F 48.2 °F 59% 29.94 in 10.0 mi Calm Calm - N/A   Clear
2:35 AM 62.6 °F 48.2 °F 59% 29.95 in 10.0 mi Calm Calm - N/A   Clear
2:55 AM 60.8 °F 48.2 °F 63% 29.94 in 10.0 mi ESE 4.6 mph - N/A   Clear
3:15 AM 60.8 °F 48.2 °F 63% 29.94 in 10.0 mi ESE 3.5 mph - N/A   Clear
3:55 AM 59.0 °F 46.4 °F 63% 29.95 in 10.0 mi SE 6.9 mph - N/A   Clear
4:15 AM 57.2 °F 46.4 °F 67% 29.95 in 10.0 mi SE 4.6 mph - N/A   Clear
4:35 AM 57.2 °F 46.4 °F 67% 29.95 in 10.0 mi NE 5.8 mph - N/A   Clear
4:55 AM 59.0 °F 46.4 °F 63% 29.96 in 10.0 mi Calm Calm - N/A   Clear
5:15 AM 60.8 °F 44.6 °F 55% 29.96 in 10.0 mi Calm Calm - N/A   Clear
5:35 AM 57.2 °F 44.6 °F 63% 29.97 in 10.0 mi Calm Calm - N/A   Clear
5:55 AM 57.2 °F 44.6 °F 63% 29.97 in 10.0 mi ESE 6.9 mph - N/A   Clear
6:15 AM 57.2 °F 44.6 °F 63% 29.97 in 10.0 mi ENE 3.5 mph - N/A   Clear
6:35 AM 55.4 °F 42.8 °F 63% 29.98 in 10.0 mi Calm Calm - N/A   Clear
6:53 AM 59.0 °F 44.6 °F 59% 29.98 in 15.0 mi Calm Calm - N/A   Clear
7:55 AM 66.2 °F 48.2 °F 52% 30.00 in 15.0 mi Calm Calm - N/A   Clear
8:47 AM 71.6 °F 48.2 °F 43% 30.01 in 15.0 mi West 4.6 mph - N/A   Clear
9:52 AM 75.2 °F 44.6 °F 34% 30.02 in 15.0 mi West 8.1 mph - N/A   Clear
10:48 AM 78.8 °F 39.2 °F 24% 30.02 in 15.0 mi WNW 16.1 mph - N/A   Clear
11:47 AM 80.6 °F 39.2 °F 23% 30.02 in 15.0 mi WNW 18.4 mph - N/A   Clear
1:48 PM 80.6 °F 44.6 °F 28% 30.04 in 15.0 mi West 10.4 mph - N/A   Clear
2:49 PM 82.4 °F 39.2 °F 21% 30.04 in 15.0 mi NNW 9.2 mph - N/A   Clear
3:49 PM 84.2 °F 37.4 °F 19% 30.03 in 15.0 mi WNW 12.7 mph - N/A   Clear
4:52 PM 84.2 °F 35.6 °F 18% 30.02 in 15.0 mi NW 16.1 mph - N/A   Clear
7:50 PM 80.6 °F 37.4 °F 21% 30.02 in 15.0 mi NNW 6.9 mph - N/A   Clear
8:50 PM 75.2 °F 39.2 °F 27% 30.03 in 15.0 mi NNW 6.9 mph - N/A   Clear
9:15 PM 73.4 °F 42.8 °F 33% 30.03 in 9.0 mi NNW 6.9 mph - N/A   Clear
9:35 PM 71.6 °F 44.6 °F 38% 30.03 in 10.0 mi NNW 6.9 mph - N/A   Clear
10:15 PM 71.6 °F 42.8 °F 35% 30.05 in 10.0 mi South 8.1 mph - N/A   Clear
10:35 PM 71.6 °F 42.8 °F 35% 30.05 in 10.0 mi Calm Calm - N/A   Clear
10:55 PM 64.4 °F 46.4 °F 52% 30.06 in 10.0 mi Calm Calm - N/A   Clear
11:15 PM 64.4 °F 46.4 °F 52% 30.06 in 10.0 mi Calm Calm - N/A   Clear
11:35 PM 64.4 °F 46.4 °F 52% 30.06 in 10.0 mi South 3.5 mph - N/A   Clear
11:55 PM 62.6 °F 44.6 °F 52% 30.06 in 10.0 mi SSE 3.5 mph - N/A   Clear